SCP
-0 0 0 0 0 0 0 0 0 0 0 0 0 0 0 0 0 0 0 0 0 0 1 1 2 1 2 1 0 0 1 0 1 0 0 0 0 0 0 0 1 0 0
-0 0 0 -0 0 0 0 0 0 0 0 0 0 0 0 0 0 0 0 0 0 1 1 2 1 2 2 1 1 0 0 1 1 0 0 0 0 0 0 0 0 1 0
-0 0 0 -0 0 0 0 0 0 0 0 0 0 0 0 0 0 0 0 0 0 0 1 1 1 1 1 0 0 0 0 0 0 0 1 0 0 0 0 1 0 0 0
-0 0 0 0 1 0 0 0 0 0 0 0 0 0 0 0 0 0 0 0 0 1 1 0 0 0 0 0 0 0 1 1 1 0 0 0 0 1 1 1 2 1 1
0 1 1 1 1 1 0 0 0 0 0 0 1 0 0 0 0 1 1 1 1 1 0 0 0 0 0 0 1 1 1 1 1 0 0 0 0 0 0 0 1 1 1
0 1 1 1 1 1 0 0 1 1 1 1 1 1 0 1 1 1 1 0 1 1 1 0 0 0 0 1 1 0 0 1 0 1 0 0 0 0 0 0 0 0 1
1 1 1 1 1 1 1 1 1 1 1 0 0 0 0 0 0 0 0 0 0 0 0 0 0 0 0 0 0 0 0 0 0 0 0 0 0 0 0 0 0 0 0
1 1 1 1 1 1 1 1 1 1 1 0 0 0 0 0 0 0 0 0 0 0 0 0 0 0 0 0 0 1 1 1 0 0 0 0 0 0 0 0 0 0 0
2 1 1 1 1 1 0 0 0 0 0 0 0 0 0 0 0 0 0 0 0 0 0 0 0 0 0 0 0 0 0 1 0 0 0 0 0 0 0 0 0 0 0
0 0 0 0 0 0 0 0 0 0 0 0 0 0 0 0 0 0 0 0 0 0 0 0 0 0 0 0 0 0 0 0 0 0 0 0 0 0 0 0 0 0 0
0 0 0 0 0 0 0 0 0 0 0 0 0 0 0 0 0 0 0 0 0 0 0 0 0 0 0 0 0 0 0 0 0 0 0 0 0 0 0 0 0 0 0
0 0 0 0 0 0 0 0 0 0 0 0 0 0 0 0 0 0 0 0 0 0 0 0 0 0 0 0 0 0 0 0 0 0 0 0 0 0 0 0 0 0 0
0 0 0 0 0 0 0 0 0 0 0 0 0 0 0 0 0 0 0 0 0 0 0 0 0 0 0 0 0 0 0 0 0 0 0 0 0 0 0 0 0 0 0
0 0 0 0 0 0 0 0 0 0 0 0 0 0 0 0 0 0 0 0 0 0 0 0 0 0 0 0 0 0 0 0 0 0 0 0 0 0 0 0 0 0 0
0 0 0 0 0 0 0 0 0 0 0 0 0 0 0 0 0 0 0 0 0 0 0 0 0 0 0 0 0 0 0 0 0 0 0 0 0 0 0 0 0 0 0
0 0 0 0 0 0 0 0 0 0 0 0 0 0 0 0 0 0 0 0 0 0 0 0 0 0 0 0 0 0 0 0 0 0 0 0 0 0 0 0 0 0 0
0 0 0 0 0 0 0 0 0 0 0 0 0 0 0 0 0 0 0 0 0 0 0 0 0 0 0 0 0 0 0 0 0 0 0 0 0 0 0 0 0 0 0
0 0 0 0 0 0 0 0 0 0 0 0 0 0 0 0 0 0 0 0 0 0 0 0 0 0 0 0 0 0 0 0 0 0 0 0 0 0 0 0 0 0 0
0 0 0 0 0 0 0 0 0 0 0 0 0 0 0 0 0 0 0 0 0 0 0 0 0 0 0 0 0 0 0 0 0 0 0 0 0 0 0 0 0 0 0
0 0 0 0 0 0 0 0 0 0 0 0 0 0 0 0 0 0 0 0 0 0 0 0 0 0 0 0 0 0 0 0 0 0 0 0 0 0 0 0 0 0 0
0 0 0 0 0 0 0 0 0 0 0 0 0 0 0 0 0 0 0 0 0 0 -0 0 0 0 0 0 0 0 0 0 0 0 0 0 0 0 0 0 0 0 0
0 0 0 0 0 0 0 0 0 0 0 0 0 0 0 0 0 0 0 -0 0 0 0 -0 0 0 0 0 0 0 0 -0 0 0 0 0 0 0 0 0 0 0 0
0 0 0 0 0 0 0 0 0 0 0 0 0 0 0 0 0 0 0 0 0 -0 -0 -0 -0 -0 0 0 0 0 0 0 0 0 0 0 0 0 0 0 0 0 0
0 0 0 0 0 0 0 0 0 0 0 0 0 0 0 0 0 0 0 0 0 -0 0 0 -0 -0 0 0 0 0 0 0 0 0 0 0 0 0 0 0 0 0 -0
0 0 0 0 0 0 0 0 0 0 0 0 0 0 0 0 0 0 0 0 0 -0 -0 -0 -0 -0 0 0 0 0 0 0 0 0 0 0 0 0 0 0 0 0 -0
0 0 0 0 0 0 0 0 0 0 0 0 0 0 0 0 0 0 -0 -0 -0 -0 -0 -0 0 0 0 0 0 0 0 0 0 0 0 0 0 0 0 0 0 0 0
Wind_Speed_500mb
25 20 16 10 5 6 7 5 7 10 13 19 23 26 29 33 36 41 43 45 48 47 50 48 56 54 56 50 54 58 84 77 78 62 63 70 70 69 68 60 58 57 59
23 16 11 6 1 5 4 4 8 14 16 21 28 27 32 37 38 40 42 42 45 46 49 54 57 58 61 60 67 88 80 85 77 70 66 70 72 74 74 69 68 62 64
22 18 12 10 9 10 9 8 10 17 25 32 34 38 38 37 42 46 50 52 50 53 57 60 54 53 58 56 55 53 43 62 61 62 72 83 82 77 75 72 71 67 62
29 24 25 21 14 13 12 16 24 31 35 36 37 35 38 44 47 50 51 55 60 64 59 57 56 57 45 39 42 37 40 40 51 62 68 68 71 75 74 77 73 53 54
27 29 26 26 27 25 24 26 29 31 33 40 39 39 40 41 43 44 42 40 42 44 45 42 37 37 40 43 38 44 47 46 46 53 53 55 58 60 68 69 77 39 43
23 26 30 29 33 35 30 30 28 29 36 40 39 40 43 44 42 37 33 33 35 35 31 34 39 43 42 37 41 43 49 50 52 53 43 48 54 61 67 69 57 49 43
30 21 25 31 29 31 35 32 27 29 32 33 41 46 48 48 45 35 39 42 30 32 39 47 50 50 45 45 48 50 53 52 50 44 40 40 46 51 59 60 62 68 46
31 23 22 21 27 30 29 26 28 30 30 36 38 44 25 52 36 45 38 40 33 41 45 48 48 50 55 54 52 50 49 45 46 45 46 48 52 48 48 53 67 70 80
34 22 19 27 25 25 23 27 26 28 30 31 34 26 16 13 52 21 37 34 48 41 48 49 43 38 40 39 41 42 42 40 42 46 48 52 51 53 41 38 41 65 71
32 24 23 23 23 23 23 19 23 26 27 31 27 25 24 32 23 25 20 47 43 56 56 52 51 47 48 48 46 45 40 37 40 45 50 51 60 59 48 56 50 43 53
21 26 23 24 19 16 15 18 22 24 24 23 26 30 34 40 37 48 30 63 58 56 58 59 58 45 35 44 45 42 40 37 39 43 46 48 49 49 59 59 56 52 47
29 25 17 15 12 11 15 18 20 19 20 21 25 28 30 33 38 42 56 63 62 61 56 52 45 43 40 42 48 53 55 54 53 53 56 56 53 50 50 49 55 59 58
25 19 13 10 9 13 14 13 15 17 21 25 27 27 28 30 31 34 41 48 54 62 64 52 47 53 58 57 53 53 54 55 52 52 51 47 45 49 51 52 56 61 60
14 12 11 8 9 10 9 13 17 20 21 22 25 25 25 26 32 34 39 46 56 57 64 64 62 60 60 55 52 50 51 47 46 48 50 50 48 50 53 54 56 57 60
14 12 9 8 10 7 12 17 20 20 21 24 28 29 28 30 32 35 39 41 42 45 65 53 66 66 59 49 51 53 50 47 45 48 42 43 46 50 52 58 62 64 65
15 10 4 4 5 12 18 22 23 23 25 31 31 30 30 30 35 27 27 32 33 41 45 60 61 57 49 46 54 56 54 55 53 50 46 42 45 50 54 57 60 66 73
9 5 4 6 10 14 19 23 27 28 31 32 30 28 25 24 24 29 33 34 38 38 44 55 45 44 50 57 55 57 60 61 56 50 49 48 46 49 49 53 57 60 61
8 2 1 5 10 17 22 27 32 28 29 27 23 23 15 21 24 31 40 36 28 31 34 44 48 52 49 57 64 55 52 59 70 56 58 48 43 41 43 47 49 51 52
4 2 4 9 15 20 27 22 24 24 19 15 15 18 18 23 32 37 43 37 33 34 36 42 51 50 50 56 68 64 55 58 66 68 60 52 52 46 41 42 44 44 45
3 5 9 14 20 20 15 16 15 14 13 16 15 14 17 24 33 37 35 37 42 47 47 46 48 50 51 57 64 68 68 56 60 64 64 48 46 52 52 50 49 43 41
3 6 12 16 11 10 10 12 14 14 10 10 10 14 16 22 30 34 37 34 42 49 56 56 48 46 49 57 63 72 68 66 66 67 70 61 54 62 53 42 33 27 34
9 12 17 18 11 10 13 17 15 15 10 9 8 11 15 18 25 28 29 33 36 41 51 61 56 47 45 50 54 62 67 67 65 56 63 64 61 65 60 45 37 42 33
12 11 16 18 13 13 15 18 16 11 4 7 2 7 17 19 23 25 29 30 34 34 37 46 58 53 48 49 53 58 60 60 56 62 55 77 72 74 71 40 57 38 46
10 12 17 17 16 14 17 19 17 9 2 2 3 15 16 17 24 30 33 36 35 39 35 34 39 46 41 43 45 49 54 57 55 61 54 63 77 80 73 52 67 53 53
8 14 16 16 16 16 16 17 17 8 8 3 6 16 14 16 23 31 36 42 43 42 40 33 30 29 31 36 42 45 51 53 62 54 62 70 72 80 80 64 72 57 42
8 14 13 15 14 16 15 15 15 15 10 5 4 5 9 16 24 33 40 46 50 55 58 48 35 30 27 29 35 40 47 47 52 39 67 76 76 66 45 67 68 63 41
Wind_Direction_500mb
173 141 140 144 124 104 57 36 18 8 349 339 334 326 320 316 311 307 310 304 300 297 295 291 292 294 288 301 309 302 297 275 281 282 281 278 277 273 270 265 259 260 257
168 147 145 197 283 304 271 303 312 310 313 304 303 303 301 295 294 297 292 295 298 300 297 300 300 286 291 283 304 299 301 290 270 281 287 286 281 274 270 268 263 256 256
173 174 181 215 238 254 281 246 266 295 308 303 301 298 294 298 301 300 293 295 296 294 296 298 298 294 310 301 303 313 304 295 285 287 288 283 280 280 273 265 267 261 254
192 185 193 201 210 245 264 265 275 280 287 295 300 298 300 301 304 300 298 296 296 297 300 303 305 309 311 299 299 311 315 310 305 300 293 287 281 279 275 264 258 259 259
205 211 212 220 214 228 237 261 274 290 294 299 303 304 304 306 311 314 314 312 311 310 312 322 333 330 319 305 295 306 309 310 311 314 305 297 294 293 283 280 273 239 261
204 217 222 221 229 234 245 258 276 288 297 301 305 308 312 315 315 314 322 332 327 324 330 331 326 319 314 308 308 310 312 313 313 312 308 299 295 294 290 283 266 231 230
197 205 216 222 237 251 258 264 274 288 298 304 310 310 313 314 315 314 314 323 324 314 313 310 307 306 299 301 307 305 304 301 306 307 305 303 300 294 291 274 267 254 227
212 210 213 227 235 243 256 276 287 295 299 310 321 324 324 319 317 321 330 328 320 310 309 308 310 307 304 302 299 298 294 299 306 300 301 302 302 297 291 288 282 272 236
217 209 228 218 229 251 263 275 282 293 304 314 323 328 336 302 312 301 319 323 318 316 318 320 323 329 326 314 310 313 307 290 293 293 296 296 295 300 289 294 287 270 250
217 210 224 229 242 262 268 279 289 296 308 308 312 315 313 306 317 321 288 314 310 313 317 320 320 318 317 316 317 320 318 313 306 303 303 293 298 282 282 294 288 278 266
261 246 234 232 244 251 268 281 285 301 305 312 311 307 305 309 317 324 331 326 320 314 314 318 325 330 325 317 317 315 311 309 306 306 301 299 304 295 287 295 279 280 274
212 216 233 233 250 257 274 286 296 297 302 311 315 320 324 331 323 323 320 323 328 326 322 331 339 336 335 329 323 317 315 313 307 299 293 292 292 292 292 294 288 274 261
197 202 208 213 234 266 284 292 295 302 310 318 320 322 330 333 335 332 326 329 331 330 332 334 335 332 329 327 325 322 316 313 307 303 300 294 290 288 287 286 279 282 279
174 190 199 227 259 269 299 319 319 320 323 322 329 341 342 334 332 332 331 333 333 330 327 335 337 340 341 338 337 328 324 319 315 310 305 292 285 285 281 279 279 278 280
174 181 200 224 255 311 325 325 326 334 333 334 333 332 332 329 322 320 318 326 329 329 322 331 334 343 348 353 357 349 337 332 326 317 316 304 296 288 280 275 274 273 270
167 173 190 237 291 315 331 336 342 341 332 326 321 319 320 323 332 347 341 331 327 322 316 324 330 334 350 349 348 349 344 342 334 335 324 311 305 297 286 279 277 271 263
159 190 239 292 322 329 336 332 332 324 316 318 319 321 326 330 339 331 325 321 315 316 315 323 334 348 357 351 349 344 348 346 341 340 329 313 309 306 300 291 285 282 274
185 225 320 329 323 326 327 324 324 326 321 318 325 334 356 352 352 346 344 342 357 4 348 341 349 354 357 2 352 354 348 5 7 356 355 344 325 310 308 302 296 292 288
128 49 331 326 320 317 323 332 332 338 350 8 32 22 16 6 1 0 360 9 6 358 351 341 338 349 357 354 354 357 351 358 5 360 357 356 359 354 337 323 315 300 292
44 350 335 322 318 327 342 343 354 359 22 35 38 38 23 0 12 10 11 16 15 9 360 349 343 344 349 353 352 356 356 1 354 357 359 352 355 351 336 316 312 307 301
3 350 356 344 347 357 8 18 6 360 11 52 61 33 15 7 12 9 10 8 9 11 6 360 351 344 348 350 350 353 352 355 357 354 356 3 350 355 353 332 322 323 308
68 27 23 19 24 30 25 14 8 357 18 87 61 29 1 11 15 13 13 15 10 5 8 5 1 346 344 343 341 348 352 356 350 354 350 13 360 358 1 353 330 333 320
63 39 25 20 33 35 26 10 358 350 51 120 52 351 4 3 2 2 6 6 9 8 0 3 5 0 346 344 343 339 340 342 347 351 345 344 356 352 358 351 355 339 325
67 36 21 34 34 39 30 17 8 2 201 258 263 341 355 353 344 351 352 354 357 2 354 349 358 4 4 352 343 339 338 336 347 355 356 339 347 345 352 351 348 337 325
44 25 31 37 34 37 32 26 21 1 2 328 291 335 351 343 343 339 341 340 341 348 353 336 330 346 4 5 1 350 356 359 359 7 357 344 353 345 351 356 343 342 344
18 31 28 25 25 29 22 19 15 12 331 322 337 10 336 340 325 332 337 334 334 340 339 334 323 319 332 349 358 3 2 356 351 347 350 356 359 354 336 348 356 354 355
Wind_Speed_850mb
25 20 16 10 5 6 7 5 7 10 13 19 23 26 29 33 36 41 43 45 48 47 50 48 56 54 56 50 54 58 84 77 78 62 63 70 70 69 68 60 58 57 59
23 16 11 6 1 5 4 4 8 14 16 21 28 27 32 37 38 40 42 42 45 46 49 54 57 58 61 60 67 88 80 85 77 70 66 70 72 74 74 69 68 62 64
22 18 12 10 9 10 9 8 10 17 25 32 34 38 38 37 42 46 50 52 50 53 57 60 54 53 58 56 55 53 43 62 61 62 72 83 82 77 75 72 71 67 62
29 24 25 21 14 13 12 16 24 31 35 36 37 35 38 44 47 50 51 55 60 64 59 57 56 57 45 39 42 37 40 40 51 62 68 68 71 75 74 77 73 53 54
27 29 26 26 27 25 24 26 29 31 33 40 39 39 40 41 43 44 42 40 42 44 45 42 37 37 40 43 38 44 47 46 46 53 53 55 58 60 68 69 77 39 43
23 26 30 29 33 35 30 30 28 29 36 40 39 40 43 44 42 37 33 33 35 35 31 34 39 43 42 37 41 43 49 50 52 53 43 48 54 61 67 69 57 49 43
30 21 25 31 29 31 35 32 27 29 32 33 41 46 48 48 45 35 39 42 30 32 39 47 50 50 45 45 48 50 53 52 50 44 40 40 46 51 59 60 62 68 46
31 23 22 21 27 30 29 26 28 30 30 36 38 44 25 52 36 45 38 40 33 41 45 48 48 50 55 54 52 50 49 45 46 45 46 48 52 48 48 53 67 70 80
34 22 19 27 25 25 23 27 26 28 30 31 34 26 16 13 52 21 37 34 48 41 48 49 43 38 40 39 41 42 42 40 42 46 48 52 51 53 41 38 41 65 71
32 24 23 23 23 23 23 19 23 26 27 31 27 25 24 32 23 25 20 47 43 56 56 52 51 47 48 48 46 45 40 37 40 45 50 51 60 59 48 56 50 43 53
21 26 23 24 19 16 15 18 22 24 24 23 26 30 34 40 37 48 30 63 58 56 58 59 58 45 35 44 45 42 40 37 39 43 46 48 49 49 59 59 56 52 47
29 25 17 15 12 11 15 18 20 19 20 21 25 28 30 33 38 42 56 63 62 61 56 52 45 43 40 42 48 53 55 54 53 53 56 56 53 50 50 49 55 59 58
25 19 13 10 9 13 14 13 15 17 21 25 27 27 28 30 31 34 41 48 54 62 64 52 47 53 58 57 53 53 54 55 52 52 51 47 45 49 51 52 56 61 60
14 12 11 8 9 10 9 13 17 20 21 22 25 25 25 26 32 34 39 46 56 57 64 64 62 60 60 55 52 50 51 47 46 48 50 50 48 50 53 54 56 57 60
14 12 9 8 10 7 12 17 20 20 21 24 28 29 28 30 32 35 39 41 42 45 65 53 66 66 59 49 51 53 50 47 45 48 42 43 46 50 52 58 62 64 65
15 10 4 4 5 12 18 22 23 23 25 31 31 30 30 30 35 27 27 32 33 41 45 60 61 57 49 46 54 56 54 55 53 50 46 42 45 50 54 57 60 66 73
9 5 4 6 10 14 19 23 27 28 31 32 30 28 25 24 24 29 33 34 38 38 44 55 45 44 50 57 55 57 60 61 56 50 49 48 46 49 49 53 57 60 61
8 2 1 5 10 17 22 27 32 28 29 27 23 23 15 21 24 31 40 36 28 31 34 44 48 52 49 57 64 55 52 59 70 56 58 48 43 41 43 47 49 51 52
4 2 4 9 15 20 27 22 24 24 19 15 15 18 18 23 32 37 43 37 33 34 36 42 51 50 50 56 68 64 55 58 66 68 60 52 52 46 41 42 44 44 45
3 5 9 14 20 20 15 16 15 14 13 16 15 14 17 24 33 37 35 37 42 47 47 46 48 50 51 57 64 68 68 56 60 64 64 48 46 52 52 50 49 43 41
3 6 12 16 11 10 10 12 14 14 10 10 10 14 16 22 30 34 37 34 42 49 56 56 48 46 49 57 63 72 68 66 66 67 70 61 54 62 53 42 33 27 34
9 12 17 18 11 10 13 17 15 15 10 9 8 11 15 18 25 28 29 33 36 41 51 61 56 47 45 50 54 62 67 67 65 56 63 64 61 65 60 45 37 42 33
12 11 16 18 13 13 15 18 16 11 4 7 2 7 17 19 23 25 29 30 34 34 37 46 58 53 48 49 53 58 60 60 56 62 55 77 72 74 71 40 57 38 46
10 12 17 17 16 14 17 19 17 9 2 2 3 15 16 17 24 30 33 36 35 39 35 34 39 46 41 43 45 49 54 57 55 61 54 63 77 80 73 52 67 53 53
8 14 16 16 16 16 16 17 17 8 8 3 6 16 14 16 23 31 36 42 43 42 40 33 30 29 31 36 42 45 51 53 62 54 62 70 72 80 80 64 72 57 42
8 14 13 15 14 16 15 15 15 15 10 5 4 5 9 16 24 33 40 46 50 55 58 48 35 30 27 29 35 40 47 47 52 39 67 76 76 66 45 67 68 63 41
Wind_Direction_850mb
173 141 140 144 124 104 57 36 18 8 349 339 334 326 320 316 311 307 310 304 300 297 295 291 292 294 288 301 309 302 297 275 281 282 281 278 277 273 270 265 259 260 257
168 147 145 197 283 304 271 303 312 310 313 304 303 303 301 295 294 297 292 295 298 300 297 300 300 286 291 283 304 299 301 290 270 281 287 286 281 274 270 268 263 256 256
173 174 181 215 238 254 281 246 266 295 308 303 301 298 294 298 301 300 293 295 296 294 296 298 298 294 310 301 303 313 304 295 285 287 288 283 280 280 273 265 267 261 254
192 185 193 201 210 245 264 265 275 280 287 295 300 298 300 301 304 300 298 296 296 297 300 303 305 309 311 299 299 311 315 310 305 300 293 287 281 279 275 264 258 259 259
205 211 212 220 214 228 237 261 274 290 294 299 303 304 304 306 311 314 314 312 311 310 312 322 333 330 319 305 295 306 309 310 311 314 305 297 294 293 283 280 273 239 261
204 217 222 221 229 234 245 258 276 288 297 301 305 308 312 315 315 314 322 332 327 324 330 331 326 319 314 308 308 310 312 313 313 312 308 299 295 294 290 283 266 231 230
197 205 216 222 237 251 258 264 274 288 298 304 310 310 313 314 315 314 314 323 324 314 313 310 307 306 299 301 307 305 304 301 306 307 305 303 300 294 291 274 267 254 227
212 210 213 227 235 243 256 276 287 295 299 310 321 324 324 319 317 321 330 328 320 310 309 308 310 307 304 302 299 298 294 299 306 300 301 302 302 297 291 288 282 272 236
217 209 228 218 229 251 263 275 282 293 304 314 323 328 336 302 312 301 319 323 318 316 318 320 323 329 326 314 310 313 307 290 293 293 296 296 295 300 289 294 287 270 250
217 210 224 229 242 262 268 279 289 296 308 308 312 315 313 306 317 321 288 314 310 313 317 320 320 318 317 316 317 320 318 313 306 303 303 293 298 282 282 294 288 278 266
261 246 234 232 244 251 268 281 285 301 305 312 311 307 305 309 317 324 331 326 320 314 314 318 325 330 325 317 317 315 311 309 306 306 301 299 304 295 287 295 279 280 274
212 216 233 233 250 257 274 286 296 297 302 311 315 320 324 331 323 323 320 323 328 326 322 331 339 336 335 329 323 317 315 313 307 299 293 292 292 292 292 294 288 274 261
197 202 208 213 234 266 284 292 295 302 310 318 320 322 330 333 335 332 326 329 331 330 332 334 335 332 329 327 325 322 316 313 307 303 300 294 290 288 287 286 279 282 279
174 190 199 227 259 269 299 319 319 320 323 322 329 341 342 334 332 332 331 333 333 330 327 335 337 340 341 338 337 328 324 319 315 310 305 292 285 285 281 279 279 278 280
174 181 200 224 255 311 325 325 326 334 333 334 333 332 332 329 322 320 318 326 329 329 322 331 334 343 348 353 357 349 337 332 326 317 316 304 296 288 280 275 274 273 270
167 173 190 237 291 315 331 336 342 341 332 326 321 319 320 323 332 347 341 331 327 322 316 324 330 334 350 349 348 349 344 342 334 335 324 311 305 297 286 279 277 271 263
159 190 239 292 322 329 336 332 332 324 316 318 319 321 326 330 339 331 325 321 315 316 315 323 334 348 357 351 349 344 348 346 341 340 329 313 309 306 300 291 285 282 274
185 225 320 329 323 326 327 324 324 326 321 318 325 334 356 352 352 346 344 342 357 4 348 341 349 354 357 2 352 354 348 5 7 356 355 344 325 310 308 302 296 292 288
128 49 331 326 320 317 323 332 332 338 350 8 32 22 16 6 1 0 360 9 6 358 351 341 338 349 357 354 354 357 351 358 5 360 357 356 359 354 337 323 315 300 292
44 350 335 322 318 327 342 343 354 359 22 35 38 38 23 0 12 10 11 16 15 9 360 349 343 344 349 353 352 356 356 1 354 357 359 352 355 351 336 316 312 307 301
3 350 356 344 347 357 8 18 6 360 11 52 61 33 15 7 12 9 10 8 9 11 6 360 351 344 348 350 350 353 352 355 357 354 356 3 350 355 353 332 322 323 308
68 27 23 19 24 30 25 14 8 357 18 87 61 29 1 11 15 13 13 15 10 5 8 5 1 346 344 343 341 348 352 356 350 354 350 13 360 358 1 353 330 333 320
63 39 25 20 33 35 26 10 358 350 51 120 52 351 4 3 2 2 6 6 9 8 0 3 5 0 346 344 343 339 340 342 347 351 345 344 356 352 358 351 355 339 325
67 36 21 34 34 39 30 17 8 2 201 258 263 341 355 353 344 351 352 354 357 2 354 349 358 4 4 352 343 339 338 336 347 355 356 339 347 345 352 351 348 337 325
44 25 31 37 34 37 32 26 21 1 2 328 291 335 351 343 343 339 341 340 341 348 353 336 330 346 4 5 1 350 356 359 359 7 357 344 353 345 351 356 343 342 344
18 31 28 25 25 29 22 19 15 12 331 322 337 10 336 340 325 332 337 334 334 340 339 334 323 319 332 349 358 3 2 356 351 347 350 356 359 354 336 348 356 354 355